TimeAKDT,TemperatureF,Dew PointF,Humidity,Sea Level PressureIn,VisibilityMPH,Wind Direction,Wind SpeedMPH,Gust SpeedMPH,PrecipitationIn,Events,Conditions,WindDirDegrees,DateUTC
12:56 AM,42.1,39.9,92,30.05,9.0,Calm,Calm,-,0.01,Rain,Light Rain,0,2012-10-06 08:56:00
1:56 AM,42.1,39.9,92,30.04,10.0,Calm,Calm,-,0.01,,Overcast,0,2012-10-06 09:56:00
2:56 AM,41.0,39.0,93,30.04,10.0,Calm,Calm,-,N/A,,Overcast,0,2012-10-06 10:56:00
3:31 AM,42.8,39.2,87,30.03,6.2,WSW,3.5,-,0.00,Rain,Light Rain,240,2012-10-06 11:31:00
3:56 AM,42.1,39.9,92,30.05,10.0,Calm,Calm,-,0.01,Rain,Light Rain,0,2012-10-06 11:56:00
4:56 AM,41.0,39.0,93,30.05,9.0,Calm,Calm,-,0.02,Rain,Light Rain,0,2012-10-06 12:56:00
5:56 AM,39.9,37.9,93,30.06,10.0,WSW,3.5,-,0.01,Rain,Light Rain,250,2012-10-06 13:56:00
6:20 AM,39.2,37.4,93,30.05,10.0,Calm,Calm,-,0.00,Rain,Light Rain,0,2012-10-06 14:20:00
6:56 AM,39.9,37.9,93,30.08,10.0,West,3.5,-,0.01,Rain,Light Rain,280,2012-10-06 14:56:00
7:15 AM,39.2,37.4,93,30.07,8.0,West,4.6,-,0.01,Rain,Light Rain,260,2012-10-06 15:15:00
7:28 AM,39.2,37.4,93,30.07,8.0,West,4.6,-,0.02,Rain,Light Rain,260,2012-10-06 15:28:00
7:56 AM,39.9,37.9,93,30.10,8.0,Calm,Calm,-,0.03,Rain,Light Rain,0,2012-10-06 15:56:00
8:17 AM,39.2,37.4,93,30.10,6.2,WSW,5.8,-,0.02,Rain,Light Rain,250,2012-10-06 16:17:00
8:26 AM,39.2,37.4,93,30.10,10.0,West,8.1,-,0.02,Rain,Light Rain,270,2012-10-06 16:26:00
8:53 AM,39.2,39.2,100,30.11,10.0,NW,3.5,-,0.03,Rain,Light Rain,310,2012-10-06 16:53:00
8:56 AM,39.9,39.0,97,30.13,10.0,Calm,Calm,-,0.03,Rain,Light Rain,0,2012-10-06 16:56:00
9:56 AM,41.0,37.9,89,30.15,10.0,SW,4.6,-,0.01,,Overcast,230,2012-10-06 17:56:00
10:56 AM,42.1,37.9,85,30.18,10.0,SSW,3.5,-,0.00,,Overcast,200,2012-10-06 18:56:00
11:30 AM,42.8,39.2,87,30.18,10.0,South,4.6,-,0.00,,Overcast,190,2012-10-06 19:30:00
11:38 AM,42.8,39.2,87,30.18,10.0,South,4.6,-,0.00,,Overcast,190,2012-10-06 19:38:00
11:54 AM,42.8,39.2,87,30.19,10.0,SSW,4.6,-,0.00,,Overcast,200,2012-10-06 19:54:00
11:56 AM,42.1,39.0,89,30.21,10.0,SSW,4.6,-,0.00,,Overcast,210,2012-10-06 19:56:00
12:09 PM,42.8,39.2,87,30.19,10.0,SSW,3.5,-,0.00,Rain,Light Rain,210,2012-10-06 20:09:00
12:56 PM,43.0,39.0,86,30.23,10.0,SSW,5.8,-,0.01,,Overcast,210,2012-10-06 20:56:00
1:41 PM,42.8,37.4,81,30.23,10.0,SSW,6.9,-,N/A,,Overcast,210,2012-10-06 21:41:00
1:56 PM,43.0,39.0,86,30.25,10.0,South,6.9,-,0.00,Rain,Light Rain,190,2012-10-06 21:56:00
2:43 PM,42.8,39.2,87,30.23,10.0,SSW,8.1,-,0.01,,Overcast,200,2012-10-06 22:43:00
2:56 PM,43.0,39.0,86,30.25,10.0,SSW,8.1,-,0.01,,Overcast,200,2012-10-06 22:56:00
3:41 PM,44.6,37.4,76,30.23,10.0,South,3.5,-,N/A,,Overcast,190,2012-10-06 23:41:00
3:56 PM,44.1,39.0,82,30.25,10.0,Calm,Calm,-,N/A,,Overcast,0,2012-10-06 23:56:00
4:56 PM,44.1,39.0,82,30.25,10.0,SE,3.5,-,N/A,,Overcast,130,2012-10-07 00:56:00
5:56 PM,44.1,39.9,85,30.27,10.0,Calm,Calm,-,N/A,,Overcast,0,2012-10-07 01:56:00
6:56 PM,43.0,39.9,89,30.25,10.0,ESE,5.8,-,N/A,,Overcast,120,2012-10-07 02:56:00
7:07 PM,42.8,39.2,87,30.23,10.0,SE,6.9,-,N/A,,Mostly Cloudy,130,2012-10-07 03:07:00
7:20 PM,42.8,39.2,87,30.23,10.0,SE,5.8,-,N/A,,Mostly Cloudy,130,2012-10-07 03:20:00
7:44 PM,42.8,37.4,81,30.23,10.0,SE,3.5,-,N/A,,Mostly Cloudy,140,2012-10-07 03:44:00
7:54 PM,42.8,39.2,87,30.23,10.0,Calm,Calm,-,N/A,,Overcast,0,2012-10-07 03:54:00
7:56 PM,42.1,39.0,89,30.26,10.0,Calm,Calm,-,N/A,,Overcast,0,2012-10-07 03:56:00
8:56 PM,41.0,39.0,93,30.25,10.0,East,5.8,-,N/A,,Mostly Cloudy,80,2012-10-07 04:56:00
9:19 PM,41.0,37.4,87,30.23,10.0,East,4.6,-,N/A,,Scattered Clouds,80,2012-10-07 05:19:00
9:56 PM,39.9,37.9,93,30.26,10.0,ENE,4.6,-,N/A,,Scattered Clouds,70,2012-10-07 05:56:00
10:56 PM,39.9,37.9,93,30.29,10.0,Calm,Calm,-,N/A,,Overcast,0,2012-10-07 06:56:00
11:56 PM,39.9,37.9,93,30.30,10.0,Calm,Calm,-,0.00,,Overcast,0,2012-10-07 07:56:00